Location: Estes Park
(40.3770°N, 105.5210°W)
Time: 23:49:11
(UTC-06:00)

Vanguard 3 - Visible Passes

Search period start: 19 June 2018 00:00
Search period end: 29 June 2018 00:00
Orbit: 508 x 3264 km, 33.3° (Epoch: 19 June)

Date Brightness Start Highest point End Pass type
(mag) Time Alt. Az. Time Alt. Az. Time Alt. Az.
19 Jun 8.6 03:56:54 19° SSW 04:00:23 32° SSE 04:08:23 10° E visible
20 Jun 9.0 02:47:09 16° SE 02:47:19 16° SE 02:51:24 10° ESE visible
20 Jun 8.5 04:52:04 10° WSW 04:57:58 48° SSE 05:08:16 10° E visible
21 Jun 8.3 03:41:58 23° SSW 03:44:25 32° SSE 03:51:43 10° E visible
22 Jun 8.9 02:32:13 16° SE 02:32:13 16° SE 02:35:14 10° ESE visible
22 Jun 8.2 04:36:47 11° WSW 04:42:02 47° SSE 04:51:21 10° E visible
23 Jun 7.9 03:27:03 28° S 03:28:32 33° SSE 03:35:09 10° E visible
24 Jun 9.0 02:17:20 15° ESE 02:17:20 15° ESE 02:19:09 10° ESE visible
24 Jun 8.0 04:21:54 14° WSW 04:26:11 46° S 04:34:33 10° E visible
25 Jun 7.7 03:12:12 32° S 03:12:44 33° SSE 03:18:42 10° E visible
26 Jun 9.2 02:02:31 12° ESE 02:02:31 12° ESE 02:03:10 10° ESE visible
26 Jun 7.8 04:07:05 19° WSW 04:10:24 44° S 04:17:52 10° ESE visible
27 Jun 7.7 02:57:25 32° SSE 02:57:25 32° SSE 03:02:21 10° ESE visible
28 Jun 7.6 03:52:23 25° SW 03:54:41 41° S 04:01:16 10° ESE visible
